This demonstration page uses our WeatherBlox Daily Observations layout. Learn more.

Left ArrowRight Arrow

41.55636, -103.73856

Hourly Observations for August 29, 2021

Temp ( °F °C ) Dew Point ( °F °C ) Humidity (%) Winds ( mph kmh ) Pressure ( in mb ) Visibility ( mi km ) Precip ( " mm )
12:58 am 00:58 Clear 54 12.3 45 7.3 72 72 Calm 30.13 1020 10 16 0.00 0.00
1:58 am 01:58 Clear 50 9.9 44 6.6 80 80 SW 5 7 30.14 1021 10 16 0.00 0.00
2:58 am 02:58 Mostly Cloudy 51 10.6 45 7 79 79 SSW 5 7 30.16 1021 10 16 0.00 0.00
3:56 am 03:56 Partly Cloudy 49 9.6 44 6.6 82 82 SSW 6 9 30.16 1021 10 16 0.00 0.00
4:56 am 04:56 Partly Cloudy 49 9.7 44 6.5 81 81 Calm 30.14 1021 10 16 0.00 0.00
6:58 am 06:58 Mostly Cloudy 54 12.1 45 7.2 72 72 Calm 30.16 1022 10 16 0.00 0.00
7:58 am 07:58 Mostly Cloudy 57 13.8 46 7.8 67 67 Calm 30.16 1021 10 16 0.00 0.00
8:58 am 08:58 Mostly Sunny 62 16.4 42 5.8 50 50 SE 10 17 30.14 1021 10 16 0.00 0.00
9:58 am 09:58 Mostly Sunny 66 18.8 45 7.3 47 47 SSE 13 20 30.15 1021 10 16 0.00 0.00
10:58 am 10:58 Cloudy 69 20.6 48 8.9 47 47 SSE 12 19 30.03 1017 10 16 0.00 0.00
11:58 am 11:58 Cloudy 71 21.7 47 8.1 42 42 SSE 16 26 30.12 1020 10 16 0.00 0.00
12:58 pm 12:58 Mostly Cloudy 75 23.9 45 7.3 35 35 S 21 33 30.09 1019 10 16 0.00 0.00
1:58 pm 13:58 Sunny 78 25.7 42 5.7 28 28 S 20 31 30.07 1018 10 16 0.00 0.00
2:58 pm 14:58 Sunny 79 25.9 40 4.3 25 25 S 18 30 30.03 1017 10 16 0.00 0.00
3:58 pm 15:58 Sunny 80 26.5 38 3.4 23 23 SSE 20 31 29.81 1009 10 16 0.00 0.00
4:58 pm 16:58 Sunny 79 25.9 44 6.5 29 29 SE 17 28 29.80 1009 10 16 0.00 0.00
5:58 pm 17:58 Sunny 77 25.2 46 8 34 34 S 17 28 29.98 1015 10 16 0.00 0.00
6:58 pm 18:58 Sunny 75 24 51 10.7 43 43 S 16 26 29.97 1015 10 16 0.00 0.00
10:58 pm 22:58 Clear 64 17.7 57 14.1 80 80 S 23 37 29.95 1014 10 16 0.00 0.00
11:58 pm 23:58 Clear 64 17.5 59 15.1 86 86 S 26 43 29.91 1013 10 16 0.00 0.00

Powered by AerisWeather